Regional Weather Roundup
Issued by NWS

Home | Current Version | Previous Version | Text Only | Print | Product List | Glossary On
Versions: 1 2 3 4 5 6 7 8 9 10 11 12 13 14 15 16 17 18 19 20 21 22 23 24 25 26 27 28 29 30 31 32 33 34 35 36 37 38 39 40 41 42 43 44 45 46 47 48 49 50
000
ASUS43 KBIS 270701
RWRND

NORTH DAKOTA REGIONAL WEATHER ROUNDUP
NATIONAL WEATHER SERVICE BISMARCK ND
200 AM CDT WED MAY 27 2015

NOTE: "FAIR" INDICATES FEW OR NO CLOUDS BELOW 12,000 FEET WITH NO
SIGNIFICANT WEATHER AND/OR OBSTRUCTIONS TO VISIBILITY.


NDZ001>003-009>011-017-270800-
NORTHWEST NORTH DAKOTA

CITY           SKY/WX    TMP DP  RH WIND       PRES   REMARKS
WILLISTON      PTCLDY    62  46  55 S3        29.90S
MINOT          CLEAR     60  45  57 SW9       29.87S
MINOT AFB      CLEAR     55  52  92 W7        29.86S
$$

NDZ018>021-031>035-040>046-270800-
SOUTHWEST NORTH DAKOTA

CITY           SKY/WX    TMP DP  RH WIND       PRES   REMARKS
BISMARCK       CLEAR     51  48  89 CALM      29.92S
DICKINSON      CLEAR     49  43  80 S8        29.93S
GARRISON         N/A     57  47  69 CALM      29.89F
HETTINGER ARPT CLEAR     49  44  83 CALM      29.97S
$$

NDZ004>008-012>016-024-026-027-054-270800-
NORTHEAST NORTH DAKOTA

CITY           SKY/WX    TMP DP  RH WIND       PRES   REMARKS
GRAND FORKS    CLEAR     60  48  64 NW10      29.78R
GRND FRKS AFB  CLEAR     59  47  65 NW10      29.80S
DEVILS LAKE    CLEAR     57  46  67 W7        29.85R
$$

NDZ022-023-025-028>030-036>039-047>053-270800-
SOUTHEAST NORTH DAKOTA

CITY           SKY/WX    TMP DP  RH WIND       PRES   REMARKS
FARGO          CLEAR     57  51  80 W6        29.79S
JAMESTOWN      MOCLDY    61  48  62 NW8       29.86R
$$




USA.gov is the U.S. government's official web portal to all federal, state and local government web resources and services.